Location: Newark
(52.3735°N, 16.9806°E)
Time: 04:25:48
(UTC+00:00)

LilacSat-2 - Pass Details

Date: 05 December 2021
Orbit: 511 x 532 km, 97.5° (Epoch: 16 January)

Event Time Altitude Azimuth Distance (km) Brightness Sun altitude
Rises 15:37:13 0° 164° (SSE) 2,630 ? -8.2°
Reaches altitude 10° 15:39:18 10° 164° (SSE) 1,751 ? -8.5°
Maximum altitude 15:43:04 88° 80° (E) 531 ? -9.0°
Drops below altitude 10° 15:46:55 10° 347° (NNW) 1,780 ? -9.6°
Sets 15:49:03 0° 347° (NNW) 2,678 ? -9.9°
